Weather History for KANK - November, 2012

Change the Weather History Date:

Wednesday, November 28, 2012

  Actual Average (KGUC) Record (KGUC)
Temperature  
Mean Temperature 40 °F -  
Max Temperature 56 °F 32 °F 46 °F (1999)
Min Temperature 23 °F 7 °F -7 °F (2003)
Degree Days  
Heating Degree Days 26    
Moisture  
Dew Point 3 °F    
Average Humidity 22    
Maximum Humidity 32    
Minimum Humidity 12    
Precipitation  
Precipitation 0.00 in - - ()
Sea Level Pressure  
Sea Level Pressure 30.35 in    
Wind  
Wind Speed 10 mph (West)    
Max Wind Speed 25 mph    
Max Gust Speed 32 mph    
Visibility 10 miles    
Events      
Averages and records for this station are not official NWS values.
T = Trace of Precipitation, MM = Missing Value Source: NWS Daily Summary

Daily Weather History Graph

Daily Weather History Graph

Search for Another Location

Airport or City:

Trip Planner

Search our weather history database for the weather conditions in past years. The results will help you decide how hot, cold, wet, or windy it might be!

Date:

Astronomy

Nov. 28, 2012 Rise Set
Actual Time 7:00 AM MST 4:44 PM MST
Civil Twilight 6:31 AM MST 5:13 PM MST
Nautical Twilight 5:58 AM MST 5:46 PM MST
Astronomical Twilight 5:26 AM MST 6:17 PM MST
Moon 5:01 PM MST (11/28) 7:00 AM MST (11/28)
Length of Visible Light 10h 42m
Length of Day
9h 43m
Full, 100% of the Moon is Illuminated
Nov 28
Full
Dec 6
Last Quarter
Dec 13
New
Dec 19
First Quarter
Dec 28
Full

Hourly Weather History & Observations

Time (MST) Temp. Windchill Dew Point Humidity Pressure Visibility Wind Dir Wind Speed Gust Speed Precip Events Conditions
12:15 AM 32.2 °F 26.7 °F -2.4 °F 23% 30.41 in 10.0 mi North 5.8 mph - N/A   Clear
12:35 AM 33.1 °F 26.1 °F -2.7 °F 22% 30.41 in 10.0 mi NNW 8.1 mph - N/A   Clear
12:55 AM 32.9 °F 29.8 °F -3.1 °F 21% 30.41 in 10.0 mi West 3.5 mph - N/A   Clear
1:15 AM 34.9 °F 28.3 °F -2.9 °F 20% 30.41 in 10.0 mi NNW 8.1 mph - N/A   Clear
1:35 AM 28.2 °F 22.0 °F -3.1 °F 26% 30.41 in 10.0 mi North 5.8 mph - N/A   Clear
1:55 AM 30.0 °F 24.1 °F -2.6 °F 25% 30.42 in 10.0 mi NNW 5.8 mph - N/A   Clear
2:15 AM 31.6 °F 24.4 °F -3.3 °F 22% 30.42 in 10.0 mi NNW 8.1 mph - N/A   Clear
2:35 AM 30.7 °F 22.6 °F -3.5 °F 23% 30.42 in 10.0 mi NNW 9.2 mph - N/A   Clear
2:55 AM 29.5 °F 21.1 °F -3.5 °F 24% 30.42 in 10.0 mi NNW 9.2 mph - N/A   Clear
3:15 AM 29.8 °F 23.9 °F -3.3 °F 24% 30.41 in 10.0 mi NNW 5.8 mph - N/A   Clear
3:55 AM 31.8 °F 23.3 °F -2.9 °F 23% 30.40 in 10.0 mi NNW 10.4 mph - N/A   Clear
4:15 AM 31.1 °F 20.5 °F -2.6 °F 24% 30.40 in 10.0 mi NNW 15.0 mph 20.7 mph N/A   Clear
4:35 AM 30.2 °F 19.8 °F -2.9 °F 24% 30.40 in 10.0 mi North 13.8 mph 18.4 mph N/A   Clear
4:55 AM 30.7 °F 20.4 °F -3.1 °F 23% 30.40 in 10.0 mi NNW 13.8 mph 17.3 mph N/A   Clear
5:15 AM 30.6 °F 20.2 °F -3.1 °F 23% 30.40 in 10.0 mi NNW 13.8 mph - N/A   Clear
5:35 AM 29.7 °F 21.3 °F -3.5 °F 24% 30.41 in 10.0 mi North 9.2 mph - N/A   Clear
6:15 AM 26.2 °F 18.6 °F -3.6 °F 27% 30.42 in 10.0 mi North 6.9 mph - N/A   Clear
6:35 AM 23.7 °F - -3.8 °F 30% 30.43 in 10.0 mi Calm Calm - N/A   Clear
6:55 AM 23.0 °F - -3.6 °F 31% 30.43 in 10.0 mi Calm Calm - N/A   Clear
7:15 AM 23.9 °F - -4.0 °F 30% 30.44 in 10.0 mi Calm Calm - N/A   Clear
7:55 AM 26.4 °F - -3.6 °F 27% 30.44 in 10.0 mi Calm Calm - N/A   Clear
8:35 AM 28.9 °F 25.2 °F -4.0 °F 24% 30.44 in 10.0 mi NW 3.5 mph - N/A   Clear
8:55 AM 30.4 °F 22.9 °F -3.5 °F 23% 30.43 in 10.0 mi NNW 8.1 mph - N/A   Clear
9:15 AM 33.3 °F 27.1 °F -2.2 °F 22% 30.43 in 10.0 mi NNW 6.9 mph - N/A   Clear
9:35 AM 35.8 °F 28.8 °F -2.2 °F 20% 30.42 in 10.0 mi NNW 9.2 mph - N/A   Clear
9:55 AM 39.0 °F 35.7 °F -0.4 °F 19% 30.42 in 10.0 mi North 4.6 mph - N/A   Clear
10:15 AM 40.5 °F 37.3 °F 0.9 °F 19% 30.41 in 10.0 mi NNE 4.6 mph - N/A   Clear
10:35 AM 41.9 °F 39.0 °F 0.9 °F 18% 30.40 in 10.0 mi NNE 4.6 mph - N/A   Clear
10:55 AM 45.1 °F 42.0 °F 1.2 °F 16% 30.39 in 10.0 mi East 5.8 mph - N/A   Clear
11:15 AM 51.8 °F - 1.8 °F 13% 30.37 in 10.0 mi South 15.0 mph 23.0 mph N/A   Clear
11:35 AM 52.5 °F - 1.9 °F 13% 30.35 in 10.0 mi South 15.0 mph 21.9 mph N/A   Clear
11:55 AM 56.1 °F - 3.0 °F 12% 30.35 in 10.0 mi WSW 18.4 mph 26.5 mph N/A   Clear
12:15 PM 54.9 °F - 3.9 °F 13% 30.33 in 10.0 mi SW 11.5 mph 27.6 mph N/A   Clear
12:35 PM 55.9 °F - 3.2 °F 12% 30.32 in 10.0 mi WSW 15.0 mph 21.9 mph N/A   Clear
12:55 PM 55.8 °F - 2.3 °F 12% 30.31 in 10.0 mi SW 18.4 mph 29.9 mph N/A   Clear
1:15 PM 56.1 °F - 4.5 °F 13% 30.30 in 10.0 mi WSW 25.3 mph 32.2 mph N/A   Clear
1:55 PM 54.1 °F - 3.9 °F 13% 30.29 in 10.0 mi SW 17.3 mph 28.8 mph N/A   Clear
2:15 PM 54.9 °F - 2.3 °F 12% 30.29 in 10.0 mi SW 18.4 mph 27.6 mph N/A   Clear
2:35 PM 53.8 °F - 2.7 °F 13% 30.28 in 10.0 mi SW 16.1 mph 29.9 mph N/A   Clear
2:55 PM 53.4 °F - 3.9 °F 13% 30.27 in 10.0 mi SW 19.6 mph 24.2 mph N/A   Clear
3:15 PM 51.8 °F - 5.9 °F 16% 30.27 in 10.0 mi SSW 16.1 mph 21.9 mph N/A   Clear
3:35 PM 50.4 °F - 6.8 °F 17% 30.27 in 10.0 mi SW 15.0 mph 24.2 mph N/A   Clear
3:55 PM 50.2 °F - 7.7 °F 18% 30.27 in 10.0 mi SW 18.4 mph 26.5 mph N/A   Clear
4:15 PM 48.9 °F - 8.2 °F 19% 30.27 in 10.0 mi SW 16.1 mph 25.3 mph N/A   Clear
4:35 PM 48.2 °F - 9.1 °F 21% 30.27 in 10.0 mi SW 13.8 mph 21.9 mph N/A   Clear
4:55 PM 46.8 °F - 9.5 °F 22% 30.27 in 10.0 mi SW 13.8 mph 20.7 mph N/A   Clear
5:15 PM 45.9 °F 39.7 °F 9.9 °F 23% 30.27 in 10.0 mi SW 13.8 mph 20.7 mph N/A   Clear
5:35 PM 45.0 °F 39.3 °F 10.4 °F 25% 30.27 in 10.0 mi SW 11.5 mph - N/A   Clear
6:15 PM 45.5 °F 38.3 °F 9.0 °F 23% 30.27 in 10.0 mi SSW 17.3 mph 23.0 mph N/A   Clear
6:35 PM 45.7 °F 38.6 °F 8.4 °F 22% 30.27 in 10.0 mi SSW 17.3 mph 24.2 mph N/A   Clear
6:55 PM 45.1 °F 38.4 °F 7.9 °F 22% 30.27 in 10.0 mi SSW 15.0 mph 21.9 mph N/A   Clear
7:15 PM 44.6 °F 38.4 °F 7.7 °F 22% 30.27 in 10.0 mi SSW 12.7 mph 19.6 mph N/A   Clear
7:35 PM 44.1 °F 36.8 °F 7.5 °F 22% 30.27 in 10.0 mi SW 16.1 mph 23.0 mph N/A   Clear
7:55 PM 44.4 °F 37.9 °F 7.7 °F 22% 30.27 in 10.0 mi SSW 13.8 mph 20.7 mph N/A   Clear
8:15 PM 43.0 °F 35.1 °F 8.1 °F 24% 30.29 in 10.0 mi SW 17.3 mph - N/A   Clear
8:35 PM 41.9 °F 33.7 °F 8.4 °F 25% 30.29 in 10.0 mi SW 17.3 mph 20.7 mph N/A   Clear
8:55 PM 42.4 °F 35.0 °F 9.5 °F 26% 30.30 in 10.0 mi SW 15.0 mph - N/A   Clear
9:15 PM 42.3 °F 35.5 °F 10.6 °F 27% 30.30 in 10.0 mi SW 12.7 mph 20.7 mph N/A   Clear
9:35 PM 42.1 °F 35.2 °F 10.6 °F 28% 30.30 in 10.0 mi SW 12.7 mph 20.7 mph N/A   Clear
9:55 PM 42.4 °F 36.5 °F 11.1 °F 28% 30.30 in 10.0 mi SW 10.4 mph 18.4 mph N/A   Clear
10:15 PM 42.8 °F 37.0 °F 11.7 °F 28% 30.30 in 10.0 mi SW 10.4 mph 19.6 mph N/A   Clear
10:35 PM 42.4 °F 34.7 °F 12.2 °F 29% 30.30 in 10.0 mi SW 16.1 mph 21.9 mph N/A   Clear
10:55 PM 42.8 °F 35.4 °F 13.1 °F 30% 30.30 in 10.0 mi SW 15.0 mph 21.9 mph N/A   Clear
11:15 PM 42.8 °F 35.4 °F 13.1 °F 30% 30.29 in 10.0 mi SW 15.0 mph 20.7 mph N/A   Clear
11:35 PM 42.8 °F 35.8 °F 13.6 °F 31% 30.29 in 10.0 mi SW 13.8 mph 18.4 mph N/A   Clear
11:55 PM 39.7 °F 35.6 °F 12.0 °F 32% 30.28 in 10.0 mi West 5.8 mph - N/A   Clear